Radiation Dose at Monitoring Post of Fukushima Daini Nuclear Power Station
Date,Time,MP-1(microSv/h),MP-2(microSv/h),MP-3(microSv/h),MP-4(microSv/h),MP-5(microSv/h),MP-6(microSv/h),MP-7(microSv/h),Wind Direction,Wind Velocity(m/s),Rain
2017/08/02,00:00,0.353,0.211,0.349,0.326,0.313,0.171,0.105,north,5.1,No
2017/08/02,00:10,0.349,0.213,0.354,0.329,0.319,0.172,0.104,north,5.5,No
2017/08/02,00:20,0.355,0.213,0.350,0.326,0.318,0.172,0.104,north,3.9,No
2017/08/02,00:30,0.349,0.211,0.351,0.327,0.315,0.172,0.105,north-northwest,4.5,No
2017/08/02,00:40,0.352,0.214,0.351,0.329,0.319,0.172,0.105,north,4.7,No
2017/08/02,00:50,0.352,0.212,0.349,0.327,0.315,0.172,0.106,north,5.0,No
2017/08/02,01:00,0.350,0.214,0.353,0.330,0.318,0.171,0.104,north,5.6,No
2017/08/02,01:10,0.354,0.213,0.349,0.328,0.318,0.174,0.105,north,4.7,No
2017/08/02,01:20,0.350,0.215,0.352,0.329,0.315,0.172,0.106,north,5.5,No
2017/08/02,01:30,0.353,0.213,0.351,0.328,0.320,0.174,0.105,north,5.2,No
2017/08/02,01:40,0.352,0.213,0.350,0.327,0.316,0.172,0.106,north,5.6,No
2017/08/02,01:50,0.350,0.214,0.354,0.328,0.318,0.172,0.105,north,4.8,No
2017/08/02,02:00,0.354,0.213,0.350,0.326,0.317,0.173,0.106,north,5.5,No
2017/08/02,02:10,0.352,0.214,0.354,0.328,0.315,0.172,0.106,north,6.0,No
2017/08/02,02:20,0.350,0.211,0.351,0.327,0.320,0.173,0.105,north,5.7,No
2017/08/02,02:30,0.353,0.214,0.350,0.330,0.316,0.172,0.105,north,6.2,No
2017/08/02,02:40,0.349,0.213,0.354,0.330,0.318,0.172,0.105,north,3.2,No
2017/08/02,02:50,0.352,0.214,0.350,0.327,0.316,0.173,0.106,north,4.7,No
2017/08/02,03:00,0.350,0.213,0.353,0.330,0.319,0.171,0.106,north,5.0,No
2017/08/02,03:10,0.352,0.213,0.350,0.327,0.319,0.173,0.106,north,7.3,No
2017/08/02,03:20,0.352,0.213,0.352,0.329,0.316,0.171,0.105,north,6.6,No
2017/08/02,03:30,0.350,0.213,0.353,0.329,0.319,0.173,0.105,north,6.0,No
2017/08/02,03:40,0.353,0.214,0.351,0.327,0.314,0.172,0.106,north,5.1,No
2017/08/02,03:50,0.350,0.213,0.351,0.331,0.319,0.172,0.105,north,5.3,No
2017/08/02,04:00,0.352,0.213,0.348,0.326,0.316,0.172,0.106,north,5.3,No
2017/08/02,04:10,0.353,0.211,0.354,0.329,0.315,0.171,0.105,north,5.0,No
2017/08/02,04:20,0.350,0.213,0.350,0.328,0.319,0.173,0.106,north,5.0,No
2017/08/02,04:30,0.351,0.214,0.352,0.327,0.316,0.172,0.106,north,4.3,No
2017/08/02,04:40,0.351,0.212,0.352,0.329,0.318,0.172,0.105,north,4.7,No
2017/08/02,04:50,0.351,0.213,0.348,0.327,0.317,0.172,0.105,north,5.3,No
2017/08/02,05:00,0.353,0.212,0.354,0.329,0.314,0.172,0.106,north,4.6,Yes
2017/08/02,05:10,0.348,0.213,0.351,0.329,0.318,0.173,0.106,north,4.5,No
2017/08/02,05:20,0.353,0.212,0.351,0.329,0.316,0.172,0.105,north,3.9,No
2017/08/02,05:30,0.352,0.213,0.351,0.329,0.317,0.172,0.104,north-northeast,3.5,No
2017/08/02,05:40,0.349,0.213,0.350,0.326,0.319,0.172,0.106,north,3.4,No
2017/08/02,05:50,0.353,0.213,0.353,0.330,0.315,0.171,0.105,north,3.4,No
2017/08/02,06:00,0.351,0.213,0.351,0.329,0.319,0.172,0.105,north,3.9,No
2017/08/02,06:10,0.351,0.212,0.350,0.326,0.317,0.173,0.106,north,4.1,Yes
2017/08/02,06:20,0.352,0.212,0.352,0.329,0.315,0.172,0.104,north,3.5,No
2017/08/02,06:30,0.351,0.214,0.350,0.328,0.320,0.173,0.104,north,4.1,No
2017/08/02,06:40,0.353,0.211,0.353,0.328,0.315,0.173,0.105,north-northwest,4.2,No
2017/08/02,06:50,0.352,0.213,0.351,0.329,0.316,0.171,0.105,north,3.9,No
2017/08/02,07:00,0.351,0.213,0.349,0.326,0.318,0.172,0.106,north,4.3,No
2017/08/02,07:10,0.353,0.212,0.351,0.329,0.316,0.173,0.105,north-northwest,4.1,No
2017/08/02,07:20,0.352,0.214,0.350,0.327,0.318,0.170,0.104,north-northwest,3.9,No
2017/08/02,07:30,0.349,0.214,0.350,0.325,0.318,0.173,0.106,north,3.9,No
2017/08/02,07:40,0.354,0.213,0.352,0.328,0.316,0.172,0.105,north,4.4,No
2017/08/02,07:50,0.350,0.215,0.351,0.328,0.318,0.171,0.104,north-northwest,1.9,No
2017/08/02,08:00,0.350,0.213,0.352,0.326,0.317,0.172,0.105,north-northeast,4.0,Yes
2017/08/02,08:10,0.353,0.213,0.353,0.329,0.315,0.172,0.105,northeast,4.7,Yes
2017/08/02,08:20,0.350,0.215,0.349,0.327,0.319,0.172,0.105,northeast,4.3,Yes
2017/08/02,08:30,0.351,0.213,0.352,0.326,0.317,0.173,0.105,northeast,4.2,Yes
2017/08/02,08:40,0.351,0.213,0.351,0.327,0.316,0.172,0.104,northeast,5.6,Yes
2017/08/02,08:50,0.350,0.214,0.351,0.324,0.319,0.172,0.105,northeast,4.7,Yes
2017/08/02,09:00,0.353,0.214,0.350,0.328,0.314,0.173,0.105,north-northeast,6.4,Yes
2017/08/02,09:10,0.349,0.212,0.348,0.324,0.320,0.172,0.106,north-northeast,5.0,Yes
2017/08/02,09:20,0.352,0.214,0.350,0.325,0.315,0.173,0.106,northeast,4.5,Yes
2017/08/02,09:30,0.350,0.212,0.347,0.326,0.315,0.172,0.105,north-northeast,6.1,Yes
2017/08/02,09:40,0.349,0.213,0.349,0.324,0.317,0.171,0.106,north-northeast,5.2,Yes
2017/08/02,09:50,0.350,0.213,0.348,0.326,0.314,0.173,0.105,north-northeast,5.2,Yes
2017/08/02,10:00,0.347,0.211,0.347,0.324,0.316,0.173,0.106,north,5.1,Yes
2017/08/02,10:10,0.351,0.213,0.349,0.326,0.317,0.171,0.105,north,4.7,Yes
2017/08/02,10:20,0.350,0.213,0.348,0.326,0.314,0.172,0.105,north,5.4,No
2017/08/02,10:30,0.347,0.211,0.349,0.322,0.317,0.171,0.105,north,6.4,Yes
2017/08/02,10:40,0.353,0.212,0.348,0.326,0.314,0.170,0.104,north,7.8,No
2017/08/02,10:50,0.348,0.210,0.345,0.325,0.313,0.171,0.104,north,6.7,No
2017/08/02,11:00,0.347,0.211,0.348,0.322,0.317,0.171,0.104,north,5.9,No
2017/08/02,11:10,0.349,0.210,0.346,0.326,0.315,0.171,0.104,north,5.6,No
2017/08/02,11:20,0.347,0.210,0.346,0.324,0.313,0.172,0.103,north,6.1,No
2017/08/02,11:30,0.347,0.213,0.349,0.323,0.317,0.170,0.104,north,6.4,No
2017/08/02,11:40,0.350,0.212,0.348,0.325,0.314,0.171,0.104,north,6.7,No
2017/08/02,11:50,0.347,0.210,0.348,0.324,0.314,0.170,0.103,north-northeast,7.7,No
2017/08/02,12:00,0.346,0.211,0.349,0.323,0.315,0.171,0.104,north,6.9,No
2017/08/02,12:10,0.351,0.212,0.345,0.326,0.317,0.171,0.105,north-northeast,7.0,No
2017/08/02,12:20,0.349,0.211,0.347,0.325,0.313,0.171,0.105,north,5.9,No
2017/08/02,12:30,0.347,0.210,0.350,0.322,0.318,0.171,0.103,north,7.9,No
2017/08/02,12:40,0.351,0.211,0.346,0.325,0.317,0.171,0.104,north,7.3,No
2017/08/02,12:50,0.352,0.211,0.346,0.325,0.315,0.171,0.104,north-northeast,8.4,No
2017/08/02,13:00,0.348,0.211,0.352,0.322,0.314,0.171,0.104,north-northeast,8.1,No
2017/08/02,13:10,0.351,0.213,0.348,0.326,0.319,0.172,0.102,north,8.6,No
2017/08/02,13:20,0.351,0.213,0.346,0.327,0.316,0.171,0.104,north,6.4,No
2017/08/02,13:30,0.348,0.211,0.349,0.323,0.314,0.170,0.104,north,7.5,No
2017/08/02,13:40,0.349,0.211,0.348,0.322,0.315,0.171,0.104,north,7.9,No
2017/08/02,13:50,0.352,0.212,0.347,0.327,0.318,0.172,0.103,north,8.9,No
2017/08/02,14:00,0.350,0.212,0.348,0.326,0.316,0.171,0.102,north,7.4,No
2017/08/02,14:10,0.347,0.211,0.351,0.323,0.314,0.171,0.104,north,6.7,No
2017/08/02,14:20,0.350,0.211,0.349,0.324,0.316,0.172,0.105,north,7.1,No
2017/08/02,14:30,0.352,0.213,0.345,0.328,0.319,0.171,0.104,north,6.6,No
2017/08/02,14:40,0.351,0.211,0.351,0.326,0.317,0.172,0.103,north-northeast,6.9,No
2017/08/02,14:50,0.349,0.210,0.352,0.323,0.315,0.171,0.104,north-northeast,6.6,No
2017/08/02,15:00,0.352,0.214,0.348,0.326,0.318,0.171,0.104,north-northeast,7.0,No
2017/08/02,15:10,0.350,0.213,0.346,0.328,0.319,0.171,0.103,north,7.2,No
2017/08/02,15:20,0.347,0.211,0.351,0.325,0.316,0.172,0.103,north-northeast,5.6,No
2017/08/02,15:30,0.353,0.211,0.351,0.323,0.314,0.174,0.104,north,6.7,No
2017/08/02,15:40,0.352,0.213,0.349,0.328,0.316,0.172,0.105,north-northeast,5.2,No
2017/08/02,15:50,0.348,0.213,0.348,0.327,0.319,0.171,0.104,north,5.0,No
2017/08/02,16:00,0.352,0.211,0.351,0.324,0.317,0.172,0.104,north,5.9,No
2017/08/02,16:10,0.353,0.213,0.350,0.324,0.315,0.172,0.105,north,5.3,No
2017/08/02,16:20,0.349,0.213,0.348,0.329,0.316,0.173,0.104,north,6.2,No
2017/08/02,16:30,0.349,0.211,0.353,0.325,0.319,0.172,0.104,north,6.0,No
2017/08/02,16:40,0.353,0.213,0.350,0.325,0.317,0.170,0.104,north,5.1,No
2017/08/02,16:50,0.351,0.212,0.348,0.329,0.315,0.173,0.105,north,5.9,No
2017/08/02,17:00,0.350,0.212,0.352,0.326,0.319,0.173,0.105,north-northeast,4.2,No
2017/08/02,17:10,0.355,0.213,0.351,0.324,0.319,0.172,0.105,north,3.8,No
2017/08/02,17:20,0.351,0.213,0.349,0.329,0.316,0.171,0.105,north,3.7,No
2017/08/02,17:30,0.349,0.212,0.353,0.327,0.318,0.172,0.105,north-northeast,1.9,No
2017/08/02,17:40,0.354,0.214,0.351,0.327,0.321,0.172,0.105,north-northeast,1.3,No
2017/08/02,17:50,0.352,0.212,0.349,0.330,0.315,0.172,0.105,north,5.2,No
2017/08/02,18:00,0.352,0.214,0.352,0.326,0.319,0.173,0.104,north,4.2,No
2017/08/02,18:10,0.354,0.214,0.350,0.328,0.317,0.172,0.105,north,2.3,No
2017/08/02,18:20,0.350,0.212,0.351,0.328,0.315,0.173,0.105,north,3.3,No
2017/08/02,18:30,0.350,0.213,0.352,0.324,0.321,0.172,0.104,north,3.6,No
2017/08/02,18:40,0.355,0.213,0.350,0.328,0.319,0.171,0.105,north,2.5,No
2017/08/02,18:50,0.351,0.211,0.352,0.326,0.315,0.173,0.105,north,2.4,No
2017/08/02,19:00,0.353,0.213,0.351,0.326,0.319,0.173,0.104,north,2.5,No
2017/08/02,19:10,0.352,0.213,0.349,0.330,0.317,0.172,0.106,north,3.1,No
2017/08/02,19:20,0.351,0.214,0.353,0.327,0.318,0.172,0.105,north,2.8,Yes
2017/08/02,19:30,0.351,0.213,0.351,0.327,0.321,0.172,0.105,north,2.6,Yes
2017/08/02,19:40,0.354,0.212,0.349,0.328,0.317,0.172,0.106,north,2.4,Yes
2017/08/02,19:50,0.350,0.213,0.353,0.325,0.318,0.172,0.105,north-northeast,1.7,Yes
2017/08/02,20:00,0.355,0.213,0.350,0.329,0.318,0.172,0.104,north,1.9,Yes
2017/08/02,20:10,0.352,0.212,0.352,0.326,0.316,0.172,0.106,north-northwest,2.7,No
2017/08/02,20:20,0.349,0.214,0.350,0.328,0.319,0.173,0.105,north,3.1,No
2017/08/02,20:30,0.354,0.212,0.350,0.328,0.316,0.172,0.106,north,4.4,No
2017/08/02,20:40,0.350,0.214,0.352,0.326,0.315,0.172,0.105,north-northwest,4.2,No
2017/08/02,20:50,0.352,0.211,0.349,0.328,0.318,0.172,0.106,north-northwest,3.9,No
2017/08/02,21:00,0.353,0.213,0.353,0.328,0.316,0.172,0.105,north-northwest,3.1,No
2017/08/02,21:10,0.350,0.212,0.351,0.326,0.317,0.173,0.105,north-northwest,3.3,No
2017/08/02,21:20,0.355,0.212,0.349,0.329,0.317,0.171,0.105,north-northwest,2.9,No
2017/08/02,21:30,0.352,0.213,0.353,0.324,0.316,0.173,0.105,northwest,1.5,No
2017/08/02,21:40,0.351,0.212,0.350,0.328,0.319,0.173,0.105,north-northwest,3.7,No
2017/08/02,21:50,0.353,0.213,0.353,0.328,0.315,0.172,0.106,north,4.7,No
2017/08/02,22:00,0.351,0.212,0.352,0.326,0.317,0.173,0.105,north,4.1,No
2017/08/02,22:10,0.352,0.213,0.350,0.329,0.319,0.173,0.105,north-northwest,4.4,No
2017/08/02,22:20,0.352,0.213,0.354,0.326,0.315,0.172,0.105,north-northwest,5.6,No
2017/08/02,22:30,0.350,0.211,0.351,0.329,0.319,0.173,0.105,north-northwest,6.5,No
2017/08/02,22:40,0.353,0.213,0.352,0.327,0.317,0.172,0.106,north-northwest,6.9,No
2017/08/02,22:50,0.351,0.212,0.352,0.327,0.317,0.173,0.105,north,6.9,No
2017/08/02,23:00,0.352,0.213,0.350,0.329,0.318,0.172,0.106,north,6.1,No
2017/08/02,23:10,0.351,0.212,0.352,0.326,0.317,0.172,0.105,north,5.8,No
2017/08/02,23:20,0.351,0.214,0.349,0.330,0.321,0.172,0.105,north,6.0,No
2017/08/02,23:30,0.354,0.214,0.353,0.325,0.317,0.172,0.105,north-northwest,5.7,No
2017/08/02,23:40,0.351,0.212,0.352,0.330,0.320,0.173,0.105,north-northwest,5.5,No
2017/08/02,23:50,0.353,0.213,0.351,0.327,0.317,0.171,0.105,north,5.0,No
